Weather History for Ely, MN

Change the Weather History Date:

Sunday, February 17, 2013

  Actual Average Record
Temperature  
Mean Temperature 2 °F -  
Max Temperature 24 °F 24 °F 46 °F (1998)
Min Temperature -20 °F 2 °F -27 °F (2000)
Degree Days  
Heating Degree Days 63    
Moisture  
Dew Point 2 °F    
Average Humidity 75    
Maximum Humidity 92    
Minimum Humidity 58    
Precipitation  
Precipitation 0.00 in - - ()
Sea Level Pressure  
Sea Level Pressure 29.82 in    
Wind  
Wind Speed 6 mph (SSE)    
Max Wind Speed 16 mph    
Max Gust Speed 23 mph    
Visibility 8 miles    
Events Snow    
Averages and records for this station are not official NWS values.
T = Trace of Precipitation, MM = Missing Value Source: NWS Daily Summary

Daily Weather History Graph

Daily Weather History Graph

Search for Another Location

Airport:

Trip Planner

Search our weather history database for the weather conditions in past years. The results will help you decide how hot, cold, wet, or windy it might be!

Date:

Astronomy

Feb. 17, 2013 Rise Set
Actual Time 7:09 AM CST 5:33 PM CST
Civil Twilight 6:37 AM CST 6:05 PM CST
Nautical Twilight 6:01 AM CST 6:41 PM CST
Astronomical Twilight 5:26 AM CST 7:17 PM CST
Moon 10:27 AM CST (2/17) 1:03 AM CST (2/17)
Length of Visible Light 11h 27m
Length of Day
10h 24m
Waxing Crescent, 49% of the Moon is Illuminated
Feb 17
Waxing Crescent
Feb 17
First Quarter
Feb 25
Full
Mar 4
Last Quarter
Mar 11
New

Hourly Weather History & Observations

Time (CST) Temp. Windchill Dew Point Humidity Pressure Visibility Wind Dir Wind Speed Gust Speed Precip Events Conditions
12:12 AM -16.6 °F - -22.0 °F 76% 30.02 in 10.0 mi Calm Calm - N/A   Clear
12:33 AM -18.4 °F - -23.8 °F 76% 30.03 in 10.0 mi Calm Calm - N/A   Clear
12:52 AM -18.4 °F - -23.8 °F 76% 30.02 in 10.0 mi Calm Calm - N/A   Clear
1:12 AM -20.2 °F - -25.6 °F 76% 30.01 in 10.0 mi Calm Calm - N/A   Clear
1:33 AM -20.2 °F - -25.6 °F 76% 30.01 in 10.0 mi Calm Calm - N/A   Clear
1:52 AM -20.2 °F - -27.4 °F 69% 30.02 in 10.0 mi Calm Calm - N/A   Clear
2:13 AM -20.2 °F - -27.4 °F 69% 30.02 in 10.0 mi Calm Calm - N/A   Clear
2:33 AM -20.2 °F - -25.6 °F 76% 30.01 in 10.0 mi Calm Calm - N/A   Clear
2:52 AM -20.2 °F - -25.6 °F 76% 30.00 in 10.0 mi Calm Calm - N/A   Clear
3:13 AM -18.4 °F -31.4 °F -20.2 °F 91% 29.99 in 10.0 mi SE 4.6 mph - N/A   Clear
3:33 AM -14.8 °F -24.8 °F -18.4 °F 84% 29.98 in 10.0 mi SSE 3.5 mph - N/A   Clear
3:52 AM -16.6 °F -29.3 °F -23.8 °F 70% 29.98 in 10.0 mi SSE 4.6 mph - N/A   Clear
4:13 AM -20.2 °F - -25.6 °F 76% 29.98 in 10.0 mi Calm Calm - N/A   Clear
4:33 AM -16.6 °F - -22.0 °F 76% 29.98 in 10.0 mi Calm Calm - N/A   Clear
4:53 AM -7.6 °F -20.6 °F -9.4 °F 92% 29.97 in 10.0 mi SSE 5.8 mph - N/A   Clear
5:11 AM -4.0 °F -14.6 °F -7.6 °F 85% 29.96 in 10.0 mi SSE 4.6 mph - N/A   Clear
5:33 AM -7.6 °F -16.5 °F -11.2 °F 84% 29.96 in 10.0 mi South 3.5 mph - N/A   Clear
5:52 AM -0.4 °F -10.4 °F -4.0 °F 85% 29.95 in 10.0 mi SSE 4.6 mph - N/A   Clear
6:12 AM -2.2 °F -12.5 °F -5.8 °F 85% 29.95 in 10.0 mi South 4.6 mph - N/A   Clear
6:33 AM -2.2 °F -15.6 °F -5.8 °F 85% 29.93 in 10.0 mi SSE 6.9 mph - N/A   Clear
6:52 AM -0.4 °F -8.3 °F -4.0 °F 85% 29.93 in 10.0 mi SSE 3.5 mph - N/A   Clear
7:13 AM -2.2 °F -12.5 °F -5.8 °F 85% 29.93 in 10.0 mi SE 4.6 mph - N/A   Scattered Clouds
7:33 AM 1.4 °F -8.3 °F -2.2 °F 85% 29.93 in 10.0 mi SSE 4.6 mph - N/A   Overcast
7:52 AM 3.2 °F -6.2 °F -0.4 °F 85% 29.92 in 10.0 mi SSE 4.6 mph - N/A   Overcast
8:13 AM 6.8 °F -5.9 °F -0.4 °F 72% 29.91 in 10.0 mi SSE 8.1 mph - N/A   Overcast
8:33 AM 6.8 °F -4.8 °F 1.4 °F 79% 29.91 in 10.0 mi South 6.9 mph - N/A   Overcast
8:52 AM 8.6 °F -5.5 °F 1.4 °F 73% 29.90 in 10.0 mi SSE 10.4 mph - N/A   Overcast
9:13 AM 10.4 °F -3.3 °F 1.4 °F 67% 29.89 in 10.0 mi SSE 10.4 mph - N/A   Overcast
9:32 AM 10.4 °F -2.4 °F 1.4 °F 67% 29.89 in 10.0 mi SSE 9.2 mph - N/A   Overcast
9:53 AM 12.2 °F -1.0 °F 1.4 °F 62% 29.88 in 10.0 mi SSE 10.4 mph 16.1 mph N/A   Mostly Cloudy
10:13 AM 12.2 °F -4.3 °F 1.4 °F 62% 29.88 in 10.0 mi South 16.1 mph 21.9 mph N/A   Scattered Clouds
10:32 AM 14.0 °F -0.2 °F 3.2 °F 62% 29.87 in 10.0 mi SSE 12.7 mph - N/A   Mostly Cloudy
10:53 AM 15.8 °F 2.7 °F 3.2 °F 58% 29.87 in 10.0 mi SSE 11.5 mph - N/A   Overcast
11:13 AM 15.8 °F 3.4 °F 3.2 °F 58% 29.86 in 10.0 mi SSE 10.4 mph - N/A   Scattered Clouds
11:32 AM 15.8 °F 1.4 °F 3.2 °F 58% 29.86 in 10.0 mi SSE 13.8 mph - N/A   Mostly Cloudy
11:53 AM 15.8 °F 2.7 °F 6.8 °F 68% 29.84 in 2.5 mi SSE 11.5 mph - N/A Snow Light Snow
12:13 PM 15.8 °F 2.7 °F 10.4 °F 79% 29.82 in 1.8 mi SSE 11.5 mph 18.4 mph N/A Snow Light Snow
12:32 PM 15.8 °F 0.9 °F 10.4 °F 79% 29.81 in 1.8 mi SE 15.0 mph 18.4 mph N/A Snow Light Snow
12:53 PM 17.6 °F 5.7 °F 12.2 °F 79% 29.80 in 1.5 mi SSE 10.4 mph 16.1 mph N/A Snow Light Snow
1:13 PM 17.6 °F 3.7 °F 12.2 °F 79% 29.79 in 1.2 mi SSE 13.8 mph 17.3 mph N/A Snow Light Snow
1:32 PM 17.6 °F 4.3 °F 14.0 °F 86% 29.78 in 1.2 mi SSE 12.7 mph - N/A Snow Light Snow
1:53 PM 19.4 °F 6.6 °F 14.0 °F 80% 29.76 in 1.5 mi SSE 12.7 mph - N/A Snow Light Snow
2:13 PM 19.4 °F 7.9 °F 14.0 °F 80% 29.76 in 4.0 mi South 10.4 mph 19.6 mph N/A Snow Light Snow
2:32 PM 19.4 °F 5.0 °F 14.0 °F 80% 29.75 in 2.5 mi South 16.1 mph - N/A Snow Light Snow
2:53 PM 19.4 °F 5.5 °F 15.8 °F 86% 29.75 in 1.2 mi SSE 15.0 mph 21.9 mph N/A Snow Light Snow
3:13 PM 19.4 °F 7.9 °F 15.8 °F 86% 29.74 in 2.0 mi SSE 10.4 mph 19.6 mph N/A Snow Light Snow
3:32 PM 19.4 °F 7.2 °F 15.8 °F 86% 29.74 in 4.0 mi South 11.5 mph 17.3 mph N/A Snow Light Snow
3:53 PM 19.4 °F 6.6 °F 14.0 °F 80% 29.72 in 3.0 mi SSE 12.7 mph 19.6 mph N/A Snow Light Snow
4:13 PM 19.4 °F 7.9 °F 14.0 °F 80% 29.71 in 7.0 mi SSE 10.4 mph 20.7 mph N/A Snow Light Snow
4:32 PM 19.4 °F 7.9 °F 12.2 °F 74% 29.70 in 10.0 mi SSE 10.4 mph 18.4 mph N/A   Scattered Clouds
4:53 PM 19.4 °F 6.0 °F 12.2 °F 74% 29.69 in 10.0 mi SSE 13.8 mph 18.4 mph N/A   Mostly Cloudy
5:13 PM 19.4 °F 7.9 °F 12.2 °F 74% 29.69 in 10.0 mi SSE 10.4 mph 18.4 mph N/A   Overcast
5:32 PM 19.4 °F 5.0 °F 12.2 °F 74% 29.68 in 10.0 mi SSE 16.1 mph 23.0 mph N/A   Overcast
5:53 PM 19.4 °F 7.2 °F 12.2 °F 74% 29.67 in 10.0 mi SSE 11.5 mph 18.4 mph N/A   Mostly Cloudy
6:13 PM 19.4 °F 5.0 °F 12.2 °F 74% 29.66 in 10.0 mi SSE 16.1 mph 20.7 mph N/A   Mostly Cloudy
6:32 PM 19.4 °F 5.0 °F 12.2 °F 74% 29.64 in 10.0 mi SSE 16.1 mph - N/A   Overcast
6:53 PM 19.4 °F 7.2 °F 12.2 °F 74% 29.64 in 10.0 mi SSE 11.5 mph - N/A   Overcast
7:13 PM 21.2 °F 7.8 °F 12.2 °F 68% 29.62 in 10.0 mi SSE 15.0 mph 21.9 mph N/A   Overcast
7:32 PM 21.2 °F 8.9 °F 14.0 °F 74% 29.64 in 10.0 mi South 12.7 mph 18.4 mph N/A   Overcast
7:53 PM 21.2 °F 8.3 °F 14.0 °F 74% 29.63 in 10.0 mi SSE 13.8 mph 17.3 mph N/A   Overcast
8:13 PM 23.0 °F 11.1 °F 14.0 °F 68% 29.62 in 10.0 mi South 12.7 mph 18.4 mph N/A   Mostly Cloudy
8:33 PM 23.0 °F 9.6 °F 14.0 °F 68% 29.61 in 10.0 mi South 16.1 mph 21.9 mph N/A   Mostly Cloudy
8:53 PM 23.0 °F 13.9 °F 14.0 °F 68% 29.63 in 10.0 mi SSW 8.1 mph 18.4 mph N/A   Mostly Cloudy
9:12 PM 23.0 °F 11.1 °F 14.0 °F 68% 29.63 in 10.0 mi South 12.7 mph 20.7 mph N/A   Overcast
9:33 PM 23.0 °F 11.7 °F 14.0 °F 68% 29.63 in 10.0 mi South 11.5 mph 19.6 mph N/A   Overcast
9:53 PM 24.8 °F 14.6 °F 14.0 °F 64% 29.63 in 10.0 mi South 10.4 mph 17.3 mph N/A   Overcast
10:12 PM 24.8 °F 13.4 °F 14.0 °F 64% 29.63 in 10.0 mi South 12.7 mph 19.6 mph N/A   Overcast
10:33 PM 23.0 °F 11.7 °F 14.0 °F 68% 29.62 in 10.0 mi South 11.5 mph 19.6 mph N/A   Overcast
10:52 PM 23.0 °F 12.4 °F 14.0 °F 68% 29.62 in 10.0 mi South 10.4 mph - N/A   Mostly Cloudy
11:13 PM 23.0 °F 11.1 °F 14.0 °F 68% 29.62 in 10.0 mi South 12.7 mph 16.1 mph N/A   Scattered Clouds
11:33 PM 23.0 °F 13.1 °F 14.0 °F 68% 29.61 in 10.0 mi South 9.2 mph 17.3 mph N/A   Clear
11:52 PM 23.0 °F 11.7 °F 14.0 °F 68% 29.60 in 10.0 mi South 11.5 mph 18.4 mph N/A   Clear